Location: Berlin
(42.3812°N, 71.6370°W)
Time: 20:42:14
(UTC+00:00)

Meteor 2-16 Rocket - Pass Details

Date: 15 November 2025
Orbit: 942 x 955 km, 82.6° (Epoch: 11 December)

Event Time Altitude Azimuth Distance (km) Brightness Sun altitude
Exits shadow 09:03:05 65° 196° (SSW) 1,038 4.4 -28.5°
Maximum altitude 09:04:04 86° 277° (W) 957 4.3 -28.3°
Drops below altitude 10° 09:10:14 10° 7° (N) 2,686 6.9 -27.2°
Sets 09:12:44 0° 8° (N) 3,637 7.6 -26.7°
